User: anonymous   Login
Location: *
(33.8649°S, 62.1526°E)
Time: 18:05:35
(UTC+00:00)
Language:

ATLAS 2AS CENTAUR R/B - Orbit

View from above orbital plane
View from above orbital plane
View from above satellite
View from above satellite

Ground track
Ground track

The orbit data is extracted from the following two-line orbital elements,

1 28096U 03054B   21108.97632859 0.00000000  00000-0  00000-0 0    01
2 28096  63.6755 115.3142 0209577 219.6139 140.3860 13.40867291    00
Epoch (UTC): 18 April 2021 23:25:54
Eccentricity: 0.0209577
inclination: 63.6755°
perigee height: 949 km
apogee height: 1263 km
right ascension of ascending node: 115.3142°
argument of perigee: 219.6139°
revolutions per day: 13.40867291
mean anomaly at epoch: 140.3860°
orbit number at epoch: 0

The dashed part of the orbit path shows where the satellite is in the earth's shadow,  

DLR